STARLINK-31792 (60132 NORAD) Tracking and Keplerian Element Data

This shows tracking and keplerian element data for the satellite.

Feedback or suggestion? Click here.




ElementValue
Catalog60132
NameSTARLINK-31792
Epoch Orbit1715
Epoch Day286.63411585
Epoch Year2024
RAAN249.1721
Inclination53.1579
Eccentricity0.0003412
Argument of Perigee135.0532
Mean Anonmoly225.0751
Mean Motion15.42122702
Decay Rate0.00094638
L11 60132U 24118V 24286.63411585 .00094638 00000+0 21599-2 0 9990
L22 60132 53.1579 249.1721 0003412 135.0532 225.0751 15.42122702 17151



Live tracking and technical data element details for STARLINK-31792 (NORAD 60132). STARLINK-31792 can be tracked NOW for your location showing map with azimuth and elevation plus other details from your city location.







IsCatalogInMostPopularTable: catalog: 60132, numindb: 6
Update: records affected: 1



GetName: 60132 STARLINK-31792

Hit Count: updated at: Thu, 23 Jan 2025 13:00:59 GMT